KPOC

La Verne

Airport
ICAO code
KPOC
Summary
ICAO Region
NAM
ICAO Territory
Location

La Verne, California,

Coordinates
34° 5' 29" N , 117° 46' 54" W
KCC
Metar
Observation
KPOC 252147Z 24011KT 10SM CLR 33/12 A2995
Station
La Verne / Brackett
Date/Time
2022-09-25 21:47:00
Wind direction
240°
Wind speed
11 kts
Lowest cloud amount
n/a
Temperature
33°C
Dew point
12°C
Humidity
27%
Weather condition
n/a

Description

La Verne Airport, also known as Brackett Field, is a public airport located 2 km southwest of La Verne, in Los Angeles County, California, USA.

Climatology

Mediterranean climate or Dry-Summer Subtropical (Köppen climate classification Csa) - Summers are warm to hot and dry. Winters are mild and somewhat rainy. Spring and autumn bring mild days with cool evenings and are generally dry.

Runways

Designator Length Width Surface Rops
08L/26R 1116 23 ASP Yes/Yes
08R/26L 1475 23 ASP Yes/Yes

Airport map

Aerial View

SKYbrary Partners:

Safety knowledge contributed by: